VK3ABC-13 Weather Reports


time (UTC)temp
C
wind
direction
speed
KPH
gust
KPH
rain 1hr
cm
rain 24hr
cm
rain mn
cm
humidity
%
barometer
mb
20260509224017 12 195 0.0 0.0 0.00 0.03 0.03 92 1028.3
20260509223516 12 198 0.0 0.0 0.00 0.03 0.03 92 1028.2
20260509222516 12 197 0.0 0.0 0.00 0.03 0.03 92 1028.1
20260509221516 12 191 0.0 0.0 0.00 0.03 0.03 92 1028.0
20260509221017 12 193 0.0 0.0 0.00 0.03 0.03 92 1027.9
20260509220516 12 193 0.0 0.0 0.00 0.03 0.03 92 1027.9
20260509215516 12 192 0.0 0.0 0.00 0.03 0.03 92 1027.7
20260509215017 12 197 0.0 0.0 0.00 0.03 0.03 92 1027.7
20260509214516 12 193 0.0 0.0 0.00 0.03 0.03 92 1027.6
20260509214017 12 199 0.0 0.0 0.00 0.03 0.03 92 1027.5
20260509213515 11 194 0.0 0.0 0.00 0.03 0.03 92 1027.4
20260509213017 11 191 0.0 0.0 0.00 0.03 0.03 92 1027.4
20260509212516 11 202 0.0 1.6 0.00 0.03 0.03 91 1027.2
20260509212017 11 192 0.0 3.2 0.00 0.03 0.03 91 1027.1
20260509211516 11 192 0.0 1.6 0.00 0.03 0.03 91 1027.1
20260509211018 11 189 0.0 0.0 0.00 0.03 0.03 91 1027.1
20260509210515 11 187 0.0 0.0 0.00 0.05 0.03 91 1027.1
20260509210018 11 190 0.0 0.0 0.00 0.05 0.03 91 1027.1
20260509205516 11 191 0.0 0.0 0.00 0.05 0.03 91 1027.0
20260509205017 11 188 0.0 0.0 0.00 0.05 0.03 91 1026.9
20260509204516 11 190 0.0 0.0 0.00 0.05 0.03 91 1026.9
20260509203516 11 191 0.0 0.0 0.00 0.05 0.03 91 1026.8
20260509202516 11 192 0.0 0.0 0.00 0.05 0.03 91 1026.7
20260509202017 11 191 0.0 0.0 0.00 0.05 0.03 91 1026.7
20260509201515 11 196 0.0 0.0 0.00 0.05 0.03 91 1026.7
20260509200515 12 195 0.0 0.0 0.00 0.05 0.03 91 1026.5
20260509200018 12 190 0.0 0.0 0.00 0.05 0.03 91 1026.5
20260509195516 12 187 0.0 0.0 0.00 0.05 0.03 91 1026.5
20260509195017 12 190 0.0 0.0 0.00 0.05 0.03 91 1026.4
20260509194516 12 191 0.0 0.0 0.00 0.05 0.03 91 1026.4
20260509193516 12 191 0.0 0.0 0.00 0.05 0.03 91 1026.3
20260509191516 12 191 0.0 0.0 0.00 0.05 0.03 91 1026.1
20260509191017 12 193 0.0 0.0 0.00 0.05 0.03 91 1026.1
20260509190516 12 196 0.0 0.0 0.00 0.05 0.03 91 1026.1
20260509190018 12 191 0.0 0.0 0.00 0.05 0.03 91 1026.0
20260509185516 12 198 0.0 0.0 0.00 0.05 0.03 91 1026.0
20260509185017 12 189 0.0 0.0 0.00 0.05 0.03 91 1025.9
20260509184515 12 189 0.0 0.0 0.00 0.05 0.03 91 1025.9
20260509184017 12 191 0.0 0.0 0.00 0.05 0.03 91 1025.8
20260509183515 12 191 0.0 0.0 0.00 0.05 0.03 91 1025.8
20260509183017 12 191 0.0 0.0 0.00 0.05 0.03 91 1025.8
20260509182515 12 190 0.0 0.0 0.00 0.05 0.03 91 1025.8
20260509182017 12 198 0.0 0.0 0.00 0.05 0.03 91 1025.7
20260509181516 12 191 0.0 0.0 0.00 0.05 0.03 91 1025.7
20260509181017 12 194 0.0 0.0 0.00 0.05 0.03 91 1025.7
20260509180017 12 194 0.0 0.0 0.00 0.05 0.03 91 1025.6
20260509175515 12 197 0.0 0.0 0.00 0.05 0.03 91 1025.6
20260509175017 12 188 0.0 0.0 0.00 0.05 0.03 91 1025.6
20260509174515 12 198 0.0 0.0 0.00 0.05 0.03 91 1025.6
20260509173516 12 189 0.0 0.0 0.00 0.05 0.03 91 1025.5
20260509172017 12 188 0.0 0.0 0.00 0.05 0.03 90 1025.6
20260509171515 12 191 0.0 0.0 0.00 0.05 0.03 90 1025.6
20260509171017 12 198 0.0 0.0 0.00 0.05 0.03 90 1025.6
20260509170516 12 191 0.0 0.0 0.00 0.05 0.03 90 1025.6
20260509170018 12 196 0.0 0.0 0.00 0.05 0.03 90 1025.7
20260509165017 12 188 0.0 0.0 0.00 0.05 0.03 90 1025.7
20260509164515 12 196 0.0 0.0 0.00 0.05 0.03 90 1025.7
20260509164017 12 190 0.0 0.0 0.03 0.05 0.03 90 1025.7
20260509163017 12 190 0.0 0.0 0.03 0.05 0.03 90 1025.7
20260509162515 12 190 0.0 0.0 0.03 0.05 0.03 90 1025.7
20260509161516 13 191 0.0 0.0 0.03 0.05 0.03 90 1025.7
20260509161017 13 188 0.0 0.0 0.03 0.05 0.03 90 1025.7
20260509160516 13 190 0.0 0.0 0.03 0.05 0.03 90 1025.8
20260509160018 13 198 0.0 0.0 0.03 0.05 0.03 90 1025.8
20260509155516 13 191 0.0 1.6 0.03 0.05 0.03 90 1025.9
20260509155016 13 195 0.0 4.8 0.03 0.05 0.03 90 1025.9
20260509154516 13 194 1.6 3.2 0.03 0.05 0.03 90 1026.0
20260509154017 13 193 0.0 0.0 0.00 0.03 0.00 90 1025.9
20260509153516 13 200 0.0 0.0 0.00 0.03 0.00 90 1025.9
20260509152515 13 205 0.0 0.0 0.00 0.03 0.00 89 1026.0
20260509152017 13 198 0.0 0.0 0.00 0.03 0.00 89 1025.9
20260509151017 13 198 0.0 0.0 0.00 0.03 0.00 89 1025.9
20260509150017 13 194 0.0 0.0 0.00 0.03 0.00 89 1025.9
20260509144516 13 194 0.0 1.6 0.00 0.03 0.00 89 1025.9
20260509143516 13 194 0.0 0.0 0.00 0.03 0.00 89 1025.9
20260509143017 13 193 0.0 0.0 0.00 0.03 0.00 89 1025.9
20260509142017 13 191 0.0 0.0 0.00 0.03 0.00 89 1025.9
20260509141511 13 197 0.0 0.0 0.00 0.03 0.00 89 1026.0
20260509141012 13 196 0.0 0.0 0.00 0.03 0.00 89 1026.0
20260509140515 13 193 0.0 0.0 0.00 0.03 0.00 89 1025.9
20260509140018 13 194 0.0 0.0 0.00 0.03 0.00 88 1025.9
20260509135516 13 195 0.0 0.0 0.00 0.03 0.03 89 1025.9
20260509135017 13 192 0.0 1.6 0.00 0.03 0.03 89 1025.9
20260509134516 13 197 0.0 1.6 0.00 0.03 0.03 88 1025.9
20260509134017 13 207 0.0 3.2 0.00 0.03 0.03 88 1025.9
20260509133516 13 194 0.0 0.0 0.00 0.03 0.03 88 1026.0
20260509133017 13 138 0.0 0.0 0.00 0.03 0.03 88 1026.0
20260509132516 13 139 0.0 0.0 0.00 0.03 0.03 88 1026.0
20260509131516 13 139 0.0 0.0 0.00 0.03 0.03 88 1026.0
20260509131017 13 133 0.0 0.0 0.00 0.03 0.03 88 1025.9
20260509130515 13 143 0.0 0.0 0.00 0.03 0.03 88 1026.0
20260509130017 13 134 0.0 0.0 0.00 0.03 0.03 88 1025.9
20260509125516 13 134 0.0 0.0 0.00 0.03 0.03 88 1026.0
20260509125017 13 136 0.0 0.0 0.00 0.03 0.03 88 1026.0
20260509124516 13 134 0.0 0.0 0.00 0.03 0.03 88 1025.9
20260509123017 13 138 0.0 0.0 0.00 0.03 0.03 88 1026.0
20260509122515 13 135 0.0 0.0 0.00 0.03 0.03 88 1026.0
20260509122017 13 133 0.0 3.2 0.00 0.03 0.03 88 1026.0
20260509121515 13 135 0.0 1.6 0.00 0.03 0.03 88 1026.0
20260509121017 13 134 0.0 1.6 0.00 0.05 0.03 88 1026.0
20260509120515 13 139 0.0 0.0 0.00 0.05 0.03 88 1026.0
20260509120018 13 134 0.0 0.0 0.00 0.05 0.03 88 1026.1
20260509115515 13 142 0.0 0.0 0.00 0.05 0.03 88 1026.1
20260509114515 13 134 0.0 0.0 0.00 0.05 0.03 88 1026.0
20260509114016 13 133 0.0 0.0 0.00 0.05 0.03 88 1026.0
20260509113515 13 135 0.0 0.0 0.00 0.05 0.03 88 1025.8
20260509112516 13 133 0.0 0.0 0.00 0.05 0.03 88 1025.7
20260509112017 13 146 0.0 0.0 0.00 0.05 0.03 87 1025.7
20260509111515 13 135 0.0 0.0 0.00 0.05 0.03 87 1025.7
20260509111016 13 132 0.0 0.0 0.00 0.05 0.03 87 1025.7
20260509110017 13 135 0.0 0.0 0.00 0.05 0.03 87 1025.7
20260509105515 13 139 0.0 0.0 0.00 0.05 0.03 87 1025.7
20260509105016 13 133 0.0 0.0 0.00 0.05 0.03 87 1025.7
20260509104515 13 139 0.0 0.0 0.00 0.05 0.03 86 1025.6
20260509103515 13 134 0.0 0.0 0.00 0.05 0.03 86 1025.6
20260509102017 13 135 0.0 0.0 0.00 0.05 0.03 86 1025.6
20260509101016 13 138 0.0 0.0 0.00 0.05 0.03 86 1025.6
20260509100515 13 135 0.0 0.0 0.00 0.05 0.03 86 1025.6
20260509100017 13 139 0.0 0.0 0.00 0.05 0.03 86 1025.6
20260509095515 13 135 0.0 0.0 0.00 0.05 0.03 86 1025.5
20260509095016 14 134 0.0 0.0 0.00 0.05 0.03 86 1025.5
20260509094515 14 139 0.0 0.0 0.00 0.05 0.03 86 1025.5
20260509094016 14 138 0.0 0.0 0.00 0.05 0.03 86 1025.5
20260509093515 14 140 0.0 0.0 0.00 0.05 0.03 86 1025.4
20260509093016 14 138 0.0 0.0 0.00 0.05 0.03 86 1025.4
20260509092515 14 134 0.0 0.0 0.00 0.05 0.03 86 1025.4
20260509092016 14 133 0.0 1.6 0.00 0.05 0.03 86 1025.4
20260509091515 14 136 0.0 1.6 0.00 0.05 0.03 86 1025.4
20260509091017 14 134 0.0 1.6 0.00 0.05 0.03 86 1025.3
20260509090515 14 135 1.6 3.2 0.00 0.05 0.03 86 1025.3
20260509090018 14 139 0.0 3.2 0.00 0.05 0.03 86 1025.3
20260509085515 14 135 0.0 3.2 0.00 0.05 0.03 86 1025.2
20260509085016 14 131 0.0 3.2 0.00 0.05 0.03 86 1025.2
20260509084516 14 138 0.0 4.8 0.00 0.05 0.03 85 1025.1
20260509084017 14 131 0.0 1.6 0.00 0.05 0.03 85 1025.0
20260509083516 14 132 0.0 0.0 0.00 0.05 0.03 85 1025.0
20260509083016 14 131 0.0 0.0 0.00 0.05 0.03 85 1025.0
20260509082515 14 136 0.0 0.0 0.00 0.05 0.03 84 1025.0
20260509082017 14 132 0.0 1.6 0.00 0.05 0.03 84 1024.9
20260509081017 15 128 0.0 1.6 0.00 0.05 0.03 84 1024.8
20260509080515 15 131 0.0 3.2 0.00 0.05 0.03 84 1024.7
20260509080018 15 138 1.6 4.8 0.00 0.05 0.03 83 1024.6
20260509075515 15 137 1.6 3.2 0.00 0.05 0.03 83 1024.6
20260509075016 15 139 0.0 0.0 0.00 0.05 0.03 83 1024.5
20260509074515 15 135 0.0 0.0 0.00 0.05 0.03 82 1024.5
20260509074016 15 133 0.0 1.6 0.00 0.05 0.03 82 1024.4
20260509073515 15 135 0.0 3.2 0.00 0.05 0.03 81 1024.3
20260509073017 15 135 0.0 0.0 0.00 0.05 0.03 81 1024.3
20260509072515 15 139 1.6 4.8 0.00 0.05 0.03 81 1024.3
20260509072017 16 138 1.6 8.0 0.00 0.05 0.03 80 1024.2
20260509071515 16 142 0.0 8.0 0.00 0.05 0.03 80 1024.2
20260509071017 16 125 1.6 8.0 0.00 0.05 0.03 80 1024.2
20260509070516 16 123 1.6 4.8 0.00 0.05 0.03 80 1024.2
20260509070018 16 126 0.0 4.8 0.00 0.05 0.03 79 1024.1
20260509065515 16 127 3.2 9.7 0.00 0.05 0.03 79 1024.1
20260509065017 16 132 1.6 8.0 0.00 0.05 0.03 79 1024.1
20260509064516 16 121 0.0 4.8 0.00 0.05 0.03 79 1024.1
20260509064017 16 132 3.2 8.0 0.00 0.05 0.03 78 1024.0
20260509063515 17 138 0.0 8.0 0.00 0.05 0.03 78 1024.0
20260509062516 17 119 3.2 9.7 0.00 0.05 0.03 77 1024.0
20260509062017 17 125 1.6 8.0 0.00 0.05 0.03 76 1023.9
20260509061515 17 139 0.0 4.8 0.00 0.05 0.03 75 1023.9
20260509060515 17 127 0.0 4.8 0.00 0.05 0.03 73 1023.9
20260509055516 17 125 0.0 3.2 0.00 0.05 0.03 72 1023.8
20260509055017 17 128 3.2 8.0 0.00 0.05 0.03 72 1023.8
20260509054515 17 146 0.0 4.8 0.00 0.05 0.03 71 1023.8
20260509054016 18 142 0.0 1.6 0.00 0.05 0.03 70 1023.8
20260509053515 18 151 0.0 1.6 0.00 0.05 0.03 69 1023.7
20260509053017 18 158 0.0 0.0 0.00 0.05 0.03 69 1023.7
20260509052515 18 146 0.0 0.0 0.00 0.05 0.03 68 1023.7
20260509052017 18 149 0.0 1.6 0.00 0.05 0.03 68 1023.7
20260509051515 19 145 0.0 1.6 0.00 0.05 0.03 68 1023.6
20260509051017 19 128 0.0 4.8 0.00 0.05 0.03 67 1023.6
20260509050018 18 138 0.0 1.6 0.00 0.05 0.03 69 1023.7
20260509045515 18 163 0.0 4.8 0.00 0.05 0.03 69 1023.7
20260509045017 18 126 1.6 9.7 0.00 0.05 0.03 70 1023.7
20260509044515 18 130 1.6 9.7 0.00 0.05 0.03 70 1023.6
20260509044017 18 110 0.0 1.6 0.00 0.05 0.03 72 1023.7
20260509043516 18 111 0.0 1.6 0.00 0.05 0.03 71 1023.7
20260509043017 18 113 0.0 3.2 0.00 0.05 0.03 71 1023.8
20260509042516 18 113 0.0 1.6 0.00 0.05 0.03 71 1023.8
20260509042016 18 141 1.6 4.8 0.00 0.05 0.03 71 1023.8
20260509041515 18 114 3.2 8.0 0.00 0.05 0.03 72 1023.8
20260509040515 17 132 3.2 8.0 0.00 0.05 0.03 74 1023.8
20260509040018 17 130 0.0 1.6 0.00 0.05 0.03 74 1023.9
20260509035515 17 134 1.6 8.0 0.00 0.05 0.03 74 1023.9
20260509035017 17 137 1.6 11.3 0.00 0.05 0.03 73 1023.9
20260509034515 17 104 1.6 11.3 0.00 0.05 0.03 73 1023.9
20260509034017 17 126 1.6 11.3 0.00 0.05 0.03 72 1023.9
20260509033515 17 113 1.6 4.8 0.00 0.05 0.03 73 1023.9
20260509033016 17 128 1.6 9.7 0.00 0.05 0.03 73 1023.9
20260509032515 17 128 0.0 9.7 0.00 0.05 0.03 74 1024.0
20260509032017 17 134 0.0 3.2 0.00 0.05 0.03 76 1024.1
20260509031514 17 132 1.6 4.8 0.00 0.05 0.03 77 1024.1
20260509031016 17 162 0.0 4.8 0.00 0.05 0.03 76 1024.1
20260509030017 17 166 0.0 3.2 0.00 0.05 0.03 76 1024.2
20260509025515 17 131 0.0 8.0 0.00 0.05 0.03 77 1024.3
20260509025016 17 130 4.8 11.3 0.00 0.05 0.03 77 1024.3
20260509024516 17 133 4.8 9.7 0.00 0.05 0.03 78 1024.4
20260509024017 17 120 1.6 8.0 0.00 0.05 0.03 77 1024.4
20260509023515 17 144 3.2 8.0 0.00 0.05 0.03 77 1024.5
20260509022515 17 123 3.2 12.9 0.00 0.05 0.03 76 1024.5
20260509022016 17 138 6.4 14.5 0.00 0.05 0.03 77 1024.6
20260509021016 17 123 1.6 9.7 0.00 0.05 0.03 77 1024.7
20260509020515 17 126 4.8 9.7 0.00 0.05 0.03 77 1024.7
20260509020017 17 143 4.8 11.3 0.00 0.05 0.03 78 1024.8
20260509015515 17 155 0.0 3.2 0.00 0.05 0.03 79 1024.9
20260509015016 16 121 3.2 9.7 0.00 0.05 0.03 79 1024.9
20260509014515 16 130 1.6 11.3 0.00 0.05 0.03 79 1025.0
20260509014016 16 125 3.2 9.7 0.00 0.05 0.03 79 1025.0
20260509013515 16 132 3.2 9.7 0.00 0.05 0.03 79 1025.0
20260509013016 17 128 0.0 9.7 0.00 0.05 0.03 79 1025.0
20260509012515 17 146 3.2 8.0 0.00 0.05 0.03 80 1025.1
20260509012016 17 137 4.8 11.3 0.00 0.05 0.03 81 1025.1
20260509011515 16 143 1.6 9.7 0.00 0.05 0.03 82 1025.1
20260509011016 16 131 1.6 9.7 0.00 0.05 0.03 82 1025.1
20260509010515 16 134 1.6 4.8 0.00 0.05 0.03 83 1025.1
20260509010017 16 133 1.6 3.2 0.00 0.05 0.03 83 1025.2
20260509005514 16 138 3.2 11.3 0.00 0.05 0.03 83 1025.2
20260509005016 16 150 4.8 11.3 0.00 0.05 0.03 84 1025.2
20260509004515 16 140 8.0 11.3 0.00 0.05 0.03 85 1025.1
20260509003515 16 169 3.2 9.7 0.00 0.05 0.03 85 1025.1
20260509003016 16 123 6.4 11.3 0.00 0.05 0.03 86 1025.0
20260509002514 16 170 1.6 9.7 0.00 0.05 0.03 87 1025.0
20260509001016 15 137 4.8 9.7 0.00 0.05 0.03 88 1025.0
20260509000515 15 133 4.8 11.3 0.00 0.05 0.03 88 1025.1
20260509000017 15 127 4.8 11.3 0.00 0.05 0.03 89 1025.1
20260508235515 15 131 4.8 11.3 0.00 0.05 0.03 89 1025.0
20260508235016 15 163 1.6 8.0 0.00 0.05 0.03 90 1025.0
20260508234514 15 128 3.2 8.0 0.00 0.05 0.03 90 1025.1
20260508234016 15 139 1.6 8.0 0.00 0.05 0.03 91 1025.1
20260508233515 15 144 1.6 8.0 0.00 0.05 0.03 92 1025.1
20260508233017 15 128 1.6 4.8 0.00 0.05 0.03 92 1025.0
20260508232514 15 130 3.2 8.0 0.00 0.05 0.03 92 1025.0
20260508231515 14 159 1.6 4.8 0.00 0.05 0.03 93 1024.9
20260508231016 14 163 0.0 3.2 0.00 0.05 0.03 93 1024.9
20260508230514 13 178 0.0 1.6 0.00 0.05 0.03 93 1024.9
20260508230017 13 167 0.0 3.2 0.00 0.05 0.03 93 1024.9
20260508225514 13 170 1.6 3.2 0.00 0.05 0.03 93 1024.8
20260508225015 13 158 0.0 3.2 0.00 0.05 0.03 92 1024.8